Overview Statistics Trail Chart Weather Telemetry Raw packets
 

This is the latest recevied weather packets stored in our database for station/object LU4EGV-13. If no packets are shown the sender has not sent any weather packets the latest 10 day(s).

<< 21 22 23 24 25 26 27 >>
Time Temp. Humidity Pressure Rain* Wind** Luminosity Snow
1788359380 19.44° C 63% 1011.8 hPa 0 mm - - -
1788358774 19.44° C 63% 1011.9 hPa 0 mm - - -
1788358168 19.44° C 65% 1012 hPa 0 mm - - -
1788357562 18.33° C 66% 1012.3 hPa 0 mm - - -
1788356961 18.33° C 69% 1012.5 hPa 0 mm - - -
1788356351 18.33° C 72% 1012.4 hPa 0 mm - - -
1788355755 17.78° C 74% 1012.4 hPa 0 mm - - -
1788355138 17.22° C 76% 1012.9 hPa 0 mm - - -
1788354531 16.67° C 80% 1013.1 hPa 0 mm - - -
1788353925 16.11° C 84% 1013.3 hPa 0 mm - - -
1788353323 15.56° C 87% 1013.7 hPa 0 mm - - -
1788352713 16.11° C 92% 1013.8 hPa 0 mm - - -
1788352108 15° C 92% 1014 hPa 0 mm - - -
1788351501 15° C 94% 1013.9 hPa 0 mm - - -
1788350893 14.44° C 94% 1013.9 hPa 0 mm - - -
1788350288 14.44° C 94% 1014 hPa 0 mm - - -
1788349682 14.44° C 94% 1014 hPa 0 mm - - -
1788349075 13.89° C 95% 1013.9 hPa 0 mm - - -
1788348469 13.89° C 95% 1014.1 hPa 0 mm - - -
1788347862 13.33° C 95% 1014.2 hPa 0 mm - - -
1788347256 13.33° C 95% 1014 hPa 0 mm - - -
1788346651 13.33° C 95% 1014 hPa 0 mm - - -
1788346045 13.33° C 95% 1014.1 hPa 0 mm - - -
1788345441 13.33° C 95% 1013.9 hPa 0 mm - - -
1788344832 13.33° C 95% 1013.9 hPa 0 mm - - -

* Rain latest hour (hover to see other rain measurements)
** Current wind speed in m/s (hover to see current wind gust speed)